Location: Montbazon
(47.2835°N, 0.6999°E)
Time: 06:30:49
(UTC+00:00)

SJ 16-02 - Pass Details

Date: 08 November 2025
Orbit: 585 x 594 km, 75.0° (Epoch: 16 December)

Event Time Altitude Azimuth Distance (km) Brightness Sun altitude
Rises 06:05:24 0° 338° (NNW) 2,840 4.4 -8.1°
Reaches altitude 10° 06:07:38 10° 337° (NNW) 1,933 3.5 -7.8°
Maximum altitude 06:11:56 81° 252° (WSW) 604 1.2 -7.1°
Drops below altitude 10° 06:16:12 10° 165° (SSE) 1,911 4.4 -6.4°
Sets 06:18:24 0° 164° (SSE) 2,805 5.3 -6.0°
